カタログに戻る

COSMOS 2251 DEB

運用中LEO
NORAD 34547·DEBRIS·🇷🇺 Russia

打ち上げ Jun 16, 1993 から Plesetsk Cosmodrome

Loading…

次のパス (今後24時間)

TLE

最新Source: Space-Track

元期: Sep 13, 2026, 02:06 UTC

1 34547U 93036UH  26256.08790846  .00004994  00000-0  70705-3 0  9995
2 34547  74.0273 284.2189 0021363 294.5186  65.3761 14.77185553925675

AllMySatでCOSMOS 2251 DEBをリアルタイム追跡

Download on the App Store